Overview Statistics Trail Chart Weather Telemetry Raw packets
 

This is the latest recevied weather packets stored in our database for station/object N0QWM. If no packets are shown the sender has not sent any weather packets the latest 10 day(s).

<< 40 41 42 43 44 45 46 >>
Time Temp. Humidity Pressure Rain* Wind** Luminosity Snow
1788386301 35° C 52% 1021.1 hPa 0 mm - 35 W/m² -
1788386001 35° C 49% 1021.1 hPa 0 mm - 35 W/m² -
1788385697 35° C 49% 1021.2 hPa 0 mm - 46 W/m² -
1788385396 35.56° C 50% 1020.8 hPa 0 mm - 54 W/m² -
1788385091 36.11° C 49% 1020.7 hPa 0 mm - 55 W/m² -
1788384786 36.67° C 47% 1020.6 hPa 0 mm - 61 W/m² -
1788384485 36.67° C 48% 1020.9 hPa 0 mm - 258 W/m² -
1788384203 35.56° C 48% 1021 hPa 0 mm - 303 W/m² -
1788383878 35° C 51% 1020.9 hPa 0 mm - 358 W/m² -
1788383568 35° C 50% 1021 hPa 0 mm - 69 W/m² -
1788383267 35° C 51% 1021.1 hPa 0 mm - 65 W/m² -
1788382963 35° C 50% 1021.1 hPa 0 mm - 67 W/m² -
1788382661 35.56° C 49% 1021.1 hPa 0 mm - 87 W/m² -
1788382356 35.56° C 49% 1021.1 hPa 0 mm - 97 W/m² -
1788382052 35.56° C 50% 1021.2 hPa 0 mm - 104 W/m² -
1788381747 35.56° C 49% 1021.1 hPa 0 mm - 85 W/m² -
1788381441 35.56° C 49% 1021.1 hPa 0 mm - 76 W/m² -
1788381141 36.67° C 49% 1021.2 hPa 0 mm - 108 W/m² -
1788380836 36.67° C 48% 1021.2 hPa 0 mm - 125 W/m² -
1788380533 37.78° C 46% 1021.4 hPa 0 mm - 149 W/m² -
1788380229 36.67° C 48% 1021.3 hPa 0 mm - 542 W/m² -
1788379928 37.22° C 48% 1021.4 hPa 0 mm - 530 W/m² -
1788379623 36.67° C 47% 1021.4 hPa 0 mm - 445 W/m² -
1788379319 37.22° C 48% 1021.7 hPa 0 mm - 436 W/m² -
1788379014 35.56° C 50% 1021.5 hPa 0 mm - 530 W/m² -

* Rain latest hour (hover to see other rain measurements)
** Current wind speed in m/s (hover to see current wind gust speed)